Year,Month,Day,Hour,Minute,Value (Times are PST for temperature in C)
2016,08,08,00,00,13.80
2016,08,08,00,01,13.80
2016,08,08,00,02,13.80
2016,08,08,00,03,13.80
2016,08,08,00,04,13.80
2016,08,08,00,05,13.80
2016,08,08,00,06,13.80
2016,08,08,00,07,13.80
2016,08,08,00,08,13.80
2016,08,08,00,09,13.80
2016,08,08,00,10,13.80
2016,08,08,00,11,13.80
2016,08,08,00,12,13.70
2016,08,08,00,13,13.70
2016,08,08,00,14,13.70
2016,08,08,00,15,13.70
2016,08,08,00,16,13.70
2016,08,08,00,17,13.70
2016,08,08,00,18,13.70
2016,08,08,00,19,13.70
2016,08,08,00,20,13.60
2016,08,08,00,21,13.60
2016,08,08,00,22,13.60
2016,08,08,00,23,13.60
2016,08,08,00,24,13.60
2016,08,08,00,25,13.60
2016,08,08,00,26,13.60
2016,08,08,00,27,13.60
2016,08,08,00,28,13.60
2016,08,08,00,29,13.50
2016,08,08,00,30,13.50
2016,08,08,00,31,13.50
2016,08,08,00,32,13.50
2016,08,08,00,33,13.50
2016,08,08,00,34,13.50
2016,08,08,00,35,13.50
2016,08,08,00,36,13.50
2016,08,08,00,37,13.40
2016,08,08,00,38,13.40
2016,08,08,00,39,13.40
2016,08,08,00,40,13.40
2016,08,08,00,41,13.40
2016,08,08,00,42,13.40
2016,08,08,00,43,13.40
2016,08,08,00,44,13.40
2016,08,08,00,45,13.40
2016,08,08,00,46,13.40
2016,08,08,00,47,13.30
2016,08,08,00,48,13.30
2016,08,08,00,49,13.30
2016,08,08,00,50,13.30
2016,08,08,00,51,13.30
2016,08,08,00,52,13.30
2016,08,08,00,53,13.30
2016,08,08,00,54,13.30
2016,08,08,00,55,13.30
2016,08,08,00,56,13.20
2016,08,08,00,57,13.20
2016,08,08,00,58,13.20
2016,08,08,00,59,13.20
2016,08,08,01,00,13.20
2016,08,08,01,01,13.20
2016,08,08,01,02,13.20
2016,08,08,01,03,13.20
2016,08,08,01,04,13.20
2016,08,08,01,05,13.20
2016,08,08,01,06,13.20
2016,08,08,01,07,13.10
2016,08,08,01,08,13.10
2016,08,08,01,09,13.10
2016,08,08,01,10,13.10
2016,08,08,01,11,13.10
2016,08,08,01,12,13.10
2016,08,08,01,13,13.10
2016,08,08,01,14,13.10
2016,08,08,01,15,13.10
2016,08,08,01,16,13.10
2016,08,08,01,17,13.10
2016,08,08,01,18,13.10
2016,08,08,01,19,13.10
2016,08,08,01,20,13.10
2016,08,08,01,21,13.10
2016,08,08,01,22,13.10
2016,08,08,01,23,13.10
2016,08,08,01,24,13.10
2016,08,08,01,25,13.10
2016,08,08,01,26,13.10
2016,08,08,01,27,13.10
2016,08,08,01,28,13.10
2016,08,08,01,29,13.10
2016,08,08,01,30,13.10
2016,08,08,01,31,13.10
2016,08,08,01,32,13.10
2016,08,08,01,33,13.10
2016,08,08,01,34,13.10
2016,08,08,01,35,13.10
2016,08,08,01,36,13.10
2016,08,08,01,37,13.10
2016,08,08,01,38,13.10
2016,08,08,01,39,13.10
2016,08,08,01,40,13.10
2016,08,08,01,41,13.10
2016,08,08,01,42,13.10
2016,08,08,01,43,13.10
2016,08,08,01,44,13.10
2016,08,08,01,45,13.10
2016,08,08,01,46,13.10
2016,08,08,01,47,13.10
2016,08,08,01,48,13.10
2016,08,08,01,49,13.10
2016,08,08,01,50,13.10
2016,08,08,01,51,13.10
2016,08,08,01,52,13.10
2016,08,08,01,53,13.10
2016,08,08,01,54,13.20
2016,08,08,01,55,13.20
2016,08,08,01,56,13.20
2016,08,08,01,57,13.20
2016,08,08,01,58,13.20
2016,08,08,01,59,13.20
2016,08,08,02,00,13.20
2016,08,08,02,01,13.20
2016,08,08,02,02,13.20
2016,08,08,02,03,13.20
2016,08,08,02,04,13.20
2016,08,08,02,05,13.20
2016,08,08,02,06,13.20
2016,08,08,02,07,13.20
2016,08,08,02,08,13.20
2016,08,08,02,09,13.20
2016,08,08,02,10,13.20
2016,08,08,02,11,13.10
2016,08,08,02,12,13.10
2016,08,08,02,13,13.10
2016,08,08,02,14,13.10
2016,08,08,02,15,13.10
2016,08,08,02,16,13.10
2016,08,08,02,17,13.10
2016,08,08,02,18,13.10
2016,08,08,02,19,13.10
2016,08,08,02,20,13.10
2016,08,08,02,21,13.10
2016,08,08,02,22,13.10
2016,08,08,02,23,13.00
2016,08,08,02,24,13.00
2016,08,08,02,25,13.00
2016,08,08,02,26,13.00
2016,08,08,02,27,13.00
2016,08,08,02,28,13.00
2016,08,08,02,29,12.90
2016,08,08,02,30,12.90
2016,08,08,02,31,12.90
2016,08,08,02,32,12.90
2016,08,08,02,33,12.90
2016,08,08,02,34,12.90
2016,08,08,02,35,12.90
2016,08,08,02,36,12.90
2016,08,08,02,37,12.80
2016,08,08,02,38,12.80
2016,08,08,02,39,12.80
2016,08,08,02,40,12.80
2016,08,08,02,41,12.80
2016,08,08,02,42,12.80
2016,08,08,02,43,12.80
2016,08,08,02,44,12.80
2016,08,08,02,45,12.80
2016,08,08,02,46,12.80
2016,08,08,02,47,12.80
2016,08,08,02,48,12.80
2016,08,08,02,49,12.80
2016,08,08,02,50,12.80
2016,08,08,02,51,12.80
2016,08,08,02,52,12.80
2016,08,08,02,53,12.80
2016,08,08,02,54,12.80
2016,08,08,02,55,12.80
2016,08,08,02,56,12.80
2016,08,08,02,57,12.80
2016,08,08,02,58,12.80
2016,08,08,02,59,12.80
2016,08,08,03,00,12.80
2016,08,08,03,01,12.80
2016,08,08,03,02,12.80
2016,08,08,03,03,12.80
2016,08,08,03,04,12.80
2016,08,08,03,05,12.80
2016,08,08,03,06,12.80
2016,08,08,03,07,12.80
2016,08,08,03,08,12.90
2016,08,08,03,09,12.90
2016,08,08,03,10,12.90
2016,08,08,03,11,12.90
2016,08,08,03,12,12.90
2016,08,08,03,13,12.90
2016,08,08,03,14,12.90
2016,08,08,03,15,12.90
2016,08,08,03,16,12.90
2016,08,08,03,17,12.90
2016,08,08,03,18,12.90
2016,08,08,03,19,12.90
2016,08,08,03,20,12.90
2016,08,08,03,21,12.90
2016,08,08,03,22,12.80
2016,08,08,03,23,12.80
2016,08,08,03,24,12.80
2016,08,08,03,25,12.80
2016,08,08,03,26,12.80
2016,08,08,03,27,12.80
2016,08,08,03,28,12.80
2016,08,08,03,29,12.80
2016,08,08,03,30,12.80
2016,08,08,03,31,12.80
2016,08,08,03,32,12.80
2016,08,08,03,33,12.80
2016,08,08,03,34,12.80
2016,08,08,03,35,12.80
2016,08,08,03,36,12.80
2016,08,08,03,37,12.80
2016,08,08,03,38,12.80
2016,08,08,03,39,12.80
2016,08,08,03,40,12.80
2016,08,08,03,41,12.70
2016,08,08,03,42,12.70
2016,08,08,03,43,12.70
2016,08,08,03,44,12.70
2016,08,08,03,45,12.70
2016,08,08,03,46,12.70
2016,08,08,03,47,12.70
2016,08,08,03,48,12.70
2016,08,08,03,49,12.70
2016,08,08,03,50,12.70
2016,08,08,03,51,12.70
2016,08,08,03,52,12.70
2016,08,08,03,53,12.70
2016,08,08,03,54,12.70
2016,08,08,03,55,12.70
2016,08,08,03,56,12.70
2016,08,08,03,57,12.70
2016,08,08,03,58,12.70
2016,08,08,03,59,12.70
2016,08,08,04,00,12.70
2016,08,08,04,01,12.70
2016,08,08,04,02,12.70
2016,08,08,05,04,12.70
2016,08,08,05,05,12.70
2016,08,08,05,06,12.70
2016,08,08,05,07,12.70
2016,08,08,05,08,12.70
2016,08,08,05,09,12.70
2016,08,08,05,10,12.70
2016,08,08,05,11,12.70
2016,08,08,05,12,12.70
2016,08,08,05,13,12.70
2016,08,08,05,14,12.70
2016,08,08,05,15,12.70
2016,08,08,05,16,12.70
2016,08,08,05,17,12.70
2016,08,08,05,18,12.70
2016,08,08,05,19,12.70
2016,08,08,05,20,12.70
2016,08,08,05,21,12.70
2016,08,08,05,22,12.70
2016,08,08,05,23,12.70
2016,08,08,05,24,12.70
2016,08,08,05,25,12.70
2016,08,08,05,26,12.70
2016,08,08,05,27,12.70
2016,08,08,05,28,12.70
2016,08,08,05,29,12.70
2016,08,08,05,30,12.70
2016,08,08,05,31,12.70
2016,08,08,05,32,12.70
2016,08,08,05,33,12.70
2016,08,08,05,34,12.70
2016,08,08,05,35,12.70
2016,08,08,05,36,12.80
2016,08,08,05,37,12.80
2016,08,08,05,38,12.80
2016,08,08,05,39,12.80
2016,08,08,05,40,12.80
2016,08,08,05,41,12.80
2016,08,08,05,42,12.80
2016,08,08,05,43,12.80
2016,08,08,05,44,12.80
2016,08,08,05,45,12.80
2016,08,08,05,46,12.80
2016,08,08,05,47,12.80
2016,08,08,05,48,12.80
2016,08,08,05,49,12.80
2016,08,08,05,50,12.80
2016,08,08,05,51,12.80
2016,08,08,05,52,12.80
2016,08,08,05,53,12.80
2016,08,08,05,54,12.80
2016,08,08,05,55,12.80
2016,08,08,05,56,12.80
2016,08,08,05,57,12.80
2016,08,08,05,58,12.80
2016,08,08,05,59,12.80
2016,08,08,06,00,12.80
2016,08,08,06,01,12.80
2016,08,08,06,02,12.80
2016,08,08,06,03,12.80
2016,08,08,06,04,12.80
2016,08,08,06,05,12.80
2016,08,08,06,06,12.80
2016,08,08,06,07,12.80
2016,08,08,06,08,12.80
2016,08,08,06,09,12.80
2016,08,08,06,10,12.80
2016,08,08,06,11,12.80
2016,08,08,06,12,12.80
2016,08,08,06,13,12.80
2016,08,08,06,14,12.80
2016,08,08,06,15,12.80
2016,08,08,06,16,12.80
2016,08,08,06,17,12.90
2016,08,08,06,18,12.90
2016,08,08,06,19,12.90
2016,08,08,06,20,12.90
2016,08,08,06,21,12.90
2016,08,08,06,22,12.90
2016,08,08,06,23,12.90
2016,08,08,06,24,12.90
2016,08,08,06,25,12.90
2016,08,08,06,26,12.90
2016,08,08,06,27,12.90
2016,08,08,06,28,12.90
2016,08,08,06,29,12.90
2016,08,08,06,30,12.90
2016,08,08,06,31,12.90
2016,08,08,06,32,12.90
2016,08,08,06,33,13.00
2016,08,08,06,34,13.00
2016,08,08,06,35,13.00
2016,08,08,06,36,13.00
2016,08,08,06,37,13.00
2016,08,08,06,38,13.00
2016,08,08,06,39,13.00
2016,08,08,06,40,13.00
2016,08,08,06,41,13.00
2016,08,08,06,42,13.00
2016,08,08,06,43,13.00
2016,08,08,06,44,13.00
2016,08,08,06,45,13.00
2016,08,08,06,46,13.00
2016,08,08,06,47,13.00
2016,08,08,06,48,13.00
2016,08,08,06,49,13.00
2016,08,08,06,50,13.00
2016,08,08,06,51,13.00
2016,08,08,06,52,13.00
2016,08,08,06,53,13.10
2016,08,08,06,54,13.10
2016,08,08,06,55,13.10
2016,08,08,06,56,13.10
2016,08,08,06,57,13.10
2016,08,08,06,58,13.10
2016,08,08,06,59,13.20
2016,08,08,07,00,13.20
2016,08,08,07,01,13.20
2016,08,08,07,02,13.20
2016,08,08,07,03,13.20
2016,08,08,07,04,13.20
2016,08,08,07,05,13.20
2016,08,08,07,06,13.30
2016,08,08,07,07,13.30
2016,08,08,07,08,13.30
2016,08,08,07,09,13.30
2016,08,08,07,10,13.30
2016,08,08,07,11,13.30
2016,08,08,07,12,13.30
2016,08,08,07,13,13.40
2016,08,08,07,14,13.40
2016,08,08,07,15,13.40
2016,08,08,07,16,13.40
2016,08,08,07,17,13.40
2016,08,08,07,18,13.50
2016,08,08,07,19,13.50
2016,08,08,07,20,13.50
2016,08,08,07,21,13.50
2016,08,08,07,22,13.60
2016,08,08,07,23,13.60
2016,08,08,07,24,13.60
2016,08,08,07,25,13.60
2016,08,08,07,26,13.60
2016,08,08,07,27,13.70
2016,08,08,07,28,13.70
2016,08,08,07,29,13.70
2016,08,08,07,30,13.70
2016,08,08,07,31,13.70
2016,08,08,07,32,13.80
2016,08,08,07,33,13.80
2016,08,08,07,34,13.80
2016,08,08,07,35,13.90
2016,08,08,07,36,13.90
2016,08,08,07,37,13.90
2016,08,08,07,38,13.90
2016,08,08,07,39,13.90
2016,08,08,07,40,13.90
2016,08,08,07,41,14.00
2016,08,08,07,42,14.00
2016,08,08,07,43,14.00
2016,08,08,07,44,14.00
2016,08,08,07,45,14.00
2016,08,08,07,46,14.00
2016,08,08,07,47,14.10
2016,08,08,07,48,14.10
2016,08,08,07,49,14.10
2016,08,08,07,50,14.10
2016,08,08,07,51,14.10
2016,08,08,07,52,14.10
2016,08,08,07,53,14.20
2016,08,08,07,54,14.20
2016,08,08,07,55,14.20
2016,08,08,07,56,14.30
2016,08,08,07,57,14.30
2016,08,08,07,58,14.40
2016,08,08,07,59,14.50
2016,08,08,08,00,14.60
2016,08,08,08,01,14.60
2016,08,08,08,02,14.70
2016,08,08,08,03,14.80
2016,08,08,08,04,14.90
2016,08,08,08,05,14.90
2016,08,08,08,06,15.00
2016,08,08,08,07,15.10
2016,08,08,08,08,15.20
2016,08,08,08,09,15.30
2016,08,08,08,10,15.40
2016,08,08,08,11,15.50
2016,08,08,08,12,15.60
2016,08,08,08,13,15.60
2016,08,08,08,14,15.70
2016,08,08,08,15,15.70
2016,08,08,08,16,15.80
2016,08,08,08,17,15.80
2016,08,08,08,18,15.90
2016,08,08,08,19,16.00
2016,08,08,08,20,16.00
2016,08,08,08,21,16.10
2016,08,08,08,22,16.20
2016,08,08,08,23,16.20
2016,08,08,08,24,16.30
2016,08,08,08,25,16.40
2016,08,08,08,26,16.40
2016,08,08,08,27,16.50
2016,08,08,08,28,16.60
2016,08,08,08,29,16.60
2016,08,08,08,30,16.70
2016,08,08,08,31,16.70
2016,08,08,08,32,16.70
2016,08,08,08,33,16.70
2016,08,08,08,34,16.70
2016,08,08,08,35,16.70
2016,08,08,08,36,16.60
2016,08,08,08,37,16.70
2016,08,08,08,38,16.70
2016,08,08,08,39,16.70
2016,08,08,08,40,16.80
2016,08,08,08,41,16.80
2016,08,08,08,42,16.90
2016,08,08,08,43,17.00
2016,08,08,08,44,17.10
2016,08,08,08,45,17.10
2016,08,08,08,46,17.20
2016,08,08,08,47,17.20
2016,08,08,08,48,17.30
2016,08,08,08,49,17.40
2016,08,08,08,50,17.50
2016,08,08,08,51,17.60
2016,08,08,08,52,17.60
2016,08,08,08,53,17.70
2016,08,08,08,54,17.70
2016,08,08,08,55,17.70
2016,08,08,08,56,17.80
2016,08,08,08,57,17.80
2016,08,08,08,58,17.90
2016,08,08,08,59,17.90
2016,08,08,09,00,18.00
2016,08,08,09,01,18.10
2016,08,08,09,02,18.10
2016,08,08,09,03,18.20
2016,08,08,09,04,18.20
2016,08,08,09,05,18.20
2016,08,08,09,06,18.20
2016,08,08,09,07,18.30
2016,08,08,09,08,18.30
2016,08,08,09,09,18.40
2016,08,08,09,10,18.40
2016,08,08,09,11,18.40
2016,08,08,09,12,18.40
2016,08,08,09,13,18.40
2016,08,08,09,14,18.40
2016,08,08,09,15,18.30
2016,08,08,09,16,18.30
2016,08,08,09,17,18.30
2016,08,08,09,18,18.40
2016,08,08,09,19,18.40
2016,08,08,09,20,18.50
2016,08,08,09,21,18.50
2016,08,08,09,22,18.60
2016,08,08,09,23,18.60
2016,08,08,09,24,18.60
2016,08,08,09,25,18.60
2016,08,08,09,26,18.60
2016,08,08,09,27,18.60
2016,08,08,09,28,18.60
2016,08,08,09,29,18.60
2016,08,08,09,30,18.60
2016,08,08,09,31,18.60
2016,08,08,09,32,18.60
2016,08,08,09,33,18.60
2016,08,08,09,34,18.70
2016,08,08,09,35,18.70
2016,08,08,09,36,18.80
2016,08,08,09,37,18.80
2016,08,08,09,38,18.80
2016,08,08,09,39,18.70
2016,08,08,09,40,18.70
2016,08,08,09,41,18.60
2016,08,08,09,42,18.60
2016,08,08,09,43,18.60
2016,08,08,09,44,18.60
2016,08,08,09,45,18.60
2016,08,08,09,46,18.60
2016,08,08,09,47,18.50
2016,08,08,09,48,18.50
2016,08,08,09,49,18.50
2016,08,08,09,50,18.50
2016,08,08,09,51,18.50
2016,08,08,09,52,18.60
2016,08,08,09,53,18.60
2016,08,08,09,54,18.70
2016,08,08,09,55,18.70
2016,08,08,09,56,18.80
2016,08,08,09,57,18.80
2016,08,08,09,58,18.80
2016,08,08,09,59,18.90
2016,08,08,10,00,18.90
2016,08,08,10,01,19.00
2016,08,08,10,02,19.00
2016,08,08,10,03,19.10
2016,08,08,10,04,19.20
2016,08,08,10,05,19.30
2016,08,08,10,06,19.30
2016,08,08,10,07,19.30
2016,08,08,10,08,19.40
2016,08,08,10,09,19.30
2016,08,08,10,10,19.30
2016,08,08,10,11,19.30
2016,08,08,10,12,19.20
2016,08,08,10,13,19.20
2016,08,08,10,14,19.20
2016,08,08,10,15,19.10
2016,08,08,10,16,19.00
2016,08,08,10,17,18.90
2016,08,08,10,18,18.80
2016,08,08,10,19,18.80
2016,08,08,10,20,18.70
2016,08,08,10,21,18.70
2016,08,08,10,22,18.60
2016,08,08,10,23,18.50
2016,08,08,10,24,18.40
2016,08,08,10,25,18.30
2016,08,08,10,26,18.30
2016,08,08,10,27,18.20
2016,08,08,10,28,18.30
2016,08,08,10,29,18.30
2016,08,08,10,30,18.30
2016,08,08,10,31,18.20
2016,08,08,10,32,18.20
2016,08,08,10,33,18.20
2016,08,08,10,34,18.20
2016,08,08,10,35,18.30
2016,08,08,10,36,18.30
2016,08,08,10,37,18.30
2016,08,08,10,38,18.30
2016,08,08,10,39,18.40
2016,08,08,10,40,18.40
2016,08,08,10,41,18.40
2016,08,08,10,42,18.40
2016,08,08,10,43,18.40
2016,08,08,10,44,18.40
2016,08,08,10,45,18.50
2016,08,08,10,46,18.50
2016,08,08,10,47,18.50
2016,08,08,10,48,18.50
2016,08,08,10,49,18.50
2016,08,08,10,50,18.50
2016,08,08,10,51,18.50
2016,08,08,10,52,18.40
2016,08,08,10,53,18.40
2016,08,08,10,54,18.50
2016,08,08,10,55,18.60
2016,08,08,10,56,18.70
2016,08,08,10,57,18.70
2016,08,08,10,58,18.70
2016,08,08,10,59,18.70
2016,08,08,11,00,18.70
2016,08,08,11,01,18.70
2016,08,08,11,02,18.70
2016,08,08,11,03,18.70
2016,08,08,11,04,18.80
2016,08,08,11,05,18.80
2016,08,08,11,06,18.90
2016,08,08,11,07,18.90
2016,08,08,11,08,18.90
2016,08,08,11,09,18.90
2016,08,08,11,10,19.00
2016,08,08,11,11,19.00
2016,08,08,11,12,19.20
2016,08,08,11,13,19.30
2016,08,08,11,14,19.30
2016,08,08,11,15,19.40
2016,08,08,11,16,19.40
2016,08,08,11,17,19.30
2016,08,08,11,18,19.30
2016,08,08,11,19,19.30
2016,08,08,11,20,19.30
2016,08,08,11,21,19.30
2016,08,08,11,22,19.30
2016,08,08,11,23,19.30
2016,08,08,11,24,19.30
2016,08,08,11,25,19.40
2016,08,08,11,26,19.50
2016,08,08,11,27,19.60
2016,08,08,11,28,19.70
2016,08,08,11,29,19.80
2016,08,08,11,30,19.80
2016,08,08,11,31,19.90
2016,08,08,11,32,20.00
2016,08,08,11,33,20.10
2016,08,08,11,34,20.20
2016,08,08,11,35,20.30
2016,08,08,11,36,20.40
2016,08,08,11,37,20.40
2016,08,08,11,38,20.40
2016,08,08,11,39,20.40
2016,08,08,11,40,20.40
2016,08,08,11,41,20.40
2016,08,08,11,42,20.50
2016,08,08,11,43,20.50
2016,08,08,11,44,20.60
2016,08,08,11,45,20.50
2016,08,08,11,46,20.50
2016,08,08,11,47,20.50
2016,08,08,11,48,20.50
2016,08,08,11,49,20.40
2016,08,08,11,50,20.40
2016,08,08,11,51,20.40
2016,08,08,11,52,20.40
2016,08,08,11,53,20.40
2016,08,08,11,54,20.40
2016,08,08,11,55,20.40
2016,08,08,11,56,20.40
2016,08,08,11,57,20.40
2016,08,08,11,58,20.40
2016,08,08,11,59,20.50
2016,08,08,12,00,20.50
2016,08,08,12,01,20.60
2016,08,08,12,02,20.60
2016,08,08,12,03,20.60
2016,08,08,12,04,20.60
2016,08,08,12,05,20.50
2016,08,08,12,06,20.50
2016,08,08,12,07,20.50
2016,08,08,12,08,20.50
2016,08,08,12,09,20.50
2016,08,08,12,10,20.60
2016,08,08,12,11,20.60
2016,08,08,12,12,20.60
2016,08,08,12,13,20.60
2016,08,08,12,14,20.60
2016,08,08,12,15,20.70
2016,08,08,12,16,20.70
2016,08,08,12,17,20.80
2016,08,08,12,18,20.90
2016,08,08,12,19,21.00
2016,08,08,12,20,21.10
2016,08,08,12,21,21.10
2016,08,08,12,22,21.10
2016,08,08,12,23,21.10
2016,08,08,12,24,21.10
2016,08,08,12,25,21.20
2016,08,08,12,26,21.20
2016,08,08,12,27,21.20
2016,08,08,12,28,21.20
2016,08,08,12,29,21.20
2016,08,08,12,30,21.20
2016,08,08,12,31,21.20
2016,08,08,12,32,21.20
2016,08,08,12,33,21.30
2016,08,08,12,34,21.30
2016,08,08,12,35,21.40
2016,08,08,12,36,21.50
2016,08,08,12,37,21.60
2016,08,08,12,38,21.60
2016,08,08,12,39,21.70
2016,08,08,12,40,21.80
2016,08,08,12,41,21.90
2016,08,08,12,42,21.90
2016,08,08,12,43,21.90
2016,08,08,12,44,21.90
2016,08,08,12,45,21.90
2016,08,08,12,46,21.90
2016,08,08,12,47,21.90
2016,08,08,12,48,21.90
2016,08,08,12,49,21.90
2016,08,08,12,50,21.80
2016,08,08,12,51,21.70
2016,08,08,12,52,21.60
2016,08,08,12,53,21.50
2016,08,08,12,54,21.40
2016,08,08,12,55,21.40
2016,08,08,12,56,21.40
2016,08,08,12,57,21.40
2016,08,08,12,58,21.30
2016,08,08,12,59,21.40
2016,08,08,13,00,21.40
2016,08,08,13,01,21.30
2016,08,08,13,02,21.20
2016,08,08,13,03,21.20
2016,08,08,13,04,21.20
2016,08,08,13,05,21.20
2016,08,08,13,06,21.20
2016,08,08,13,07,21.20
2016,08,08,13,08,21.30
2016,08,08,13,09,21.40
2016,08,08,13,10,21.50
2016,08,08,13,11,21.60
2016,08,08,13,12,21.70
2016,08,08,13,13,21.80
2016,08,08,13,14,21.90
2016,08,08,13,15,21.90
2016,08,08,13,16,21.80
2016,08,08,13,17,21.80
2016,08,08,13,18,21.80
2016,08,08,13,19,21.80
2016,08,08,13,20,21.70
2016,08,08,13,21,21.70
2016,08,08,13,22,21.70
2016,08,08,13,23,21.80
2016,08,08,13,24,21.80
2016,08,08,13,25,21.80
2016,08,08,13,26,21.70
2016,08,08,13,27,21.70
2016,08,08,13,28,21.60
2016,08,08,13,29,21.60
2016,08,08,13,30,21.60
2016,08,08,13,31,21.60
2016,08,08,13,32,21.60
2016,08,08,13,33,21.60
2016,08,08,13,34,21.60
2016,08,08,13,35,21.70
2016,08,08,13,36,21.70
2016,08,08,13,37,21.80
2016,08,08,13,38,21.80
2016,08,08,13,39,21.80
2016,08,08,13,40,21.90
2016,08,08,13,41,21.90
2016,08,08,13,42,21.90
2016,08,08,13,43,21.90
2016,08,08,13,44,21.90
2016,08,08,13,45,21.90
2016,08,08,13,46,21.90
2016,08,08,13,47,21.90
2016,08,08,13,48,21.80
2016,08,08,13,49,21.70
2016,08,08,13,50,21.70
2016,08,08,13,51,21.70
2016,08,08,13,52,21.70
2016,08,08,13,53,21.70
2016,08,08,13,54,21.80
2016,08,08,13,55,21.80
2016,08,08,13,56,21.80
2016,08,08,13,57,21.70
2016,08,08,13,58,21.60
2016,08,08,13,59,21.60
2016,08,08,14,00,21.60
2016,08,08,14,01,21.60
2016,08,08,14,02,21.70
2016,08,08,14,03,21.70
2016,08,08,14,04,21.80
2016,08,08,14,05,21.90
2016,08,08,14,06,22.10
2016,08,08,14,07,22.10
2016,08,08,14,08,22.10
2016,08,08,14,09,22.10
2016,08,08,14,10,22.10
2016,08,08,14,11,22.20
2016,08,08,14,12,22.10
2016,08,08,14,13,22.00
2016,08,08,14,14,21.90
2016,08,08,14,15,21.90
2016,08,08,14,16,21.90
2016,08,08,14,17,21.90
2016,08,08,14,18,21.90
2016,08,08,14,19,21.80
2016,08,08,14,20,21.80
2016,08,08,14,21,21.70
2016,08,08,14,22,21.60
2016,08,08,14,23,21.50
2016,08,08,14,24,21.50
2016,08,08,14,25,21.40
2016,08,08,14,26,21.40
2016,08,08,14,27,21.40
2016,08,08,14,28,21.50
2016,08,08,14,29,21.50
2016,08,08,14,30,21.50
2016,08,08,14,31,21.50
2016,08,08,14,32,21.50
2016,08,08,14,33,21.60
2016,08,08,14,34,21.60
2016,08,08,14,35,21.60
2016,08,08,14,36,21.60
2016,08,08,14,37,21.70
2016,08,08,14,38,21.70
2016,08,08,14,39,21.80
2016,08,08,14,40,21.80
2016,08,08,14,41,21.90
2016,08,08,14,42,21.90
2016,08,08,14,43,22.00
2016,08,08,14,44,22.10
2016,08,08,14,45,22.10
2016,08,08,14,46,22.10
2016,08,08,14,47,22.20
2016,08,08,14,48,22.20
2016,08,08,14,49,22.20
2016,08,08,14,50,22.20
2016,08,08,14,51,22.30
2016,08,08,14,52,22.30
2016,08,08,14,53,22.30
2016,08,08,14,54,22.30
2016,08,08,14,55,22.30
2016,08,08,14,56,22.20
2016,08,08,14,57,22.20
2016,08,08,14,58,22.20
2016,08,08,14,59,22.20
2016,08,08,15,00,22.20
2016,08,08,15,01,22.10
2016,08,08,15,02,22.00
2016,08,08,15,03,21.90
2016,08,08,15,04,21.90
2016,08,08,15,05,21.90
2016,08,08,15,06,22.00
2016,08,08,15,07,22.00
2016,08,08,15,08,22.00
2016,08,08,15,09,22.00
2016,08,08,15,10,22.10
2016,08,08,15,11,22.10
2016,08,08,15,12,22.20
2016,08,08,15,13,22.20
2016,08,08,15,14,22.30
2016,08,08,15,15,22.30
2016,08,08,15,16,22.20
2016,08,08,15,17,22.20
2016,08,08,15,18,22.30
2016,08,08,15,19,22.30
2016,08,08,15,20,22.30
2016,08,08,15,21,22.40
2016,08,08,15,22,22.50
2016,08,08,15,23,22.50
2016,08,08,15,24,22.60
2016,08,08,15,25,22.70
2016,08,08,15,26,22.60
2016,08,08,15,27,22.60
2016,08,08,15,28,22.60
2016,08,08,15,29,22.60
2016,08,08,15,30,22.60
2016,08,08,15,31,22.60
2016,08,08,15,32,22.50
2016,08,08,15,33,22.50
2016,08,08,15,34,22.40
2016,08,08,15,35,22.40
2016,08,08,15,36,22.40
2016,08,08,15,37,22.40
2016,08,08,15,38,22.50
2016,08,08,15,39,22.40
2016,08,08,15,40,22.40
2016,08,08,15,41,22.40
2016,08,08,15,42,22.50
2016,08,08,15,43,22.50
2016,08,08,15,44,22.40
2016,08,08,15,45,22.30
2016,08,08,15,46,22.20
2016,08,08,15,47,22.20
2016,08,08,15,48,22.30
2016,08,08,15,49,22.30
2016,08,08,15,50,22.40
2016,08,08,15,51,22.50
2016,08,08,15,52,22.50
2016,08,08,15,53,22.60
2016,08,08,15,54,22.70
2016,08,08,15,55,22.70
2016,08,08,15,56,22.70
2016,08,08,15,57,22.70
2016,08,08,15,58,22.70
2016,08,08,15,59,22.60
2016,08,08,16,00,22.60
2016,08,08,16,01,22.60
2016,08,08,16,02,22.60
2016,08,08,16,03,22.60
2016,08,08,16,04,22.60
2016,08,08,16,05,22.70
2016,08,08,16,06,22.70
2016,08,08,16,07,22.70
2016,08,08,16,08,22.70
2016,08,08,16,09,22.70
2016,08,08,17,04,21.90
2016,08,08,17,05,21.80
2016,08,08,17,06,21.70
2016,08,08,17,07,21.70
2016,08,08,17,08,21.70
2016,08,08,17,09,21.60
2016,08,08,17,10,21.60
2016,08,08,17,11,21.60
2016,08,08,17,12,21.60
2016,08,08,17,13,21.60
2016,08,08,17,14,21.60
2016,08,08,17,15,21.60
2016,08,08,17,16,21.60
2016,08,08,17,17,21.50
2016,08,08,17,18,21.40
2016,08,08,17,19,21.40
2016,08,08,17,20,21.30
2016,08,08,17,21,21.30
2016,08,08,17,22,21.20
2016,08,08,17,23,21.30
2016,08,08,17,24,21.30
2016,08,08,17,25,21.30
2016,08,08,17,26,21.40
2016,08,08,17,27,21.40
2016,08,08,17,28,21.50
2016,08,08,17,29,21.50
2016,08,08,17,30,21.50
2016,08,08,17,31,21.50
2016,08,08,17,32,21.50
2016,08,08,17,33,21.40
2016,08,08,17,34,21.40
2016,08,08,17,35,21.40
2016,08,08,17,36,21.30
2016,08,08,17,37,21.30
2016,08,08,17,38,21.30
2016,08,08,17,39,21.20
2016,08,08,17,40,21.10
2016,08,08,17,41,21.00
2016,08,08,17,42,20.90
2016,08,08,17,43,20.90
2016,08,08,17,44,20.80
2016,08,08,17,45,20.80
2016,08,08,17,46,20.80
2016,08,08,17,47,20.70
2016,08,08,17,48,20.70
2016,08,08,17,49,20.60
2016,08,08,17,50,20.50
2016,08,08,17,51,20.50
2016,08,08,17,52,20.40
2016,08,08,17,53,20.30
2016,08,08,17,54,20.30
2016,08,08,17,55,20.20
2016,08,08,17,56,20.20
2016,08,08,17,57,20.20
2016,08,08,17,58,20.20
2016,08,08,17,59,20.10
2016,08,08,18,00,20.10
2016,08,08,18,01,20.10
2016,08,08,18,02,20.10
2016,08,08,18,03,20.10
2016,08,08,18,04,20.10
2016,08,08,18,05,20.10
2016,08,08,18,06,20.10
2016,08,08,18,07,20.10
2016,08,08,18,08,20.10
2016,08,08,18,09,20.20
2016,08,08,18,10,20.20
2016,08,08,18,11,20.20
2016,08,08,18,12,20.20
2016,08,08,18,13,20.20
2016,08,08,18,14,20.20
2016,08,08,18,15,20.10
2016,08,08,18,16,20.10
2016,08,08,18,17,20.10
2016,08,08,18,18,20.10
2016,08,08,18,19,20.00
2016,08,08,18,20,20.00
2016,08,08,18,21,19.90
2016,08,08,18,22,19.90
2016,08,08,18,23,19.90
2016,08,08,18,24,19.80
2016,08,08,18,25,19.80
2016,08,08,18,26,19.80
2016,08,08,18,27,19.80
2016,08,08,18,28,19.80
2016,08,08,18,29,19.80
2016,08,08,18,30,19.80
2016,08,08,18,31,19.70
2016,08,08,18,32,19.70
2016,08,08,18,33,19.80
2016,08,08,18,34,19.80
2016,08,08,18,35,19.70
2016,08,08,18,36,19.70
2016,08,08,18,37,19.70
2016,08,08,18,38,19.70
2016,08,08,18,39,19.70
2016,08,08,18,40,19.70
2016,08,08,18,41,19.70
2016,08,08,18,42,19.70
2016,08,08,18,43,19.70
2016,08,08,18,44,19.70
2016,08,08,18,45,19.70
2016,08,08,18,46,19.60
2016,08,08,18,47,19.60
2016,08,08,18,48,19.60
2016,08,08,18,49,19.60
2016,08,08,18,50,19.60
2016,08,08,18,51,19.50
2016,08,08,18,52,19.50
2016,08,08,18,53,19.40
2016,08,08,18,54,19.40
2016,08,08,18,55,19.40
2016,08,08,18,56,19.40
2016,08,08,18,57,19.40
2016,08,08,18,58,19.30
2016,08,08,18,59,19.30
2016,08,08,19,00,19.30
2016,08,08,19,01,19.20
2016,08,08,19,02,19.20
2016,08,08,19,03,19.20
2016,08,08,19,04,19.20
2016,08,08,19,05,19.20
2016,08,08,19,06,19.20
2016,08,08,19,07,19.20
2016,08,08,19,08,19.20
2016,08,08,19,09,19.20
2016,08,08,19,10,19.20
2016,08,08,19,11,19.20
2016,08,08,19,12,19.20
2016,08,08,19,13,19.20
2016,08,08,19,14,19.10